Radiation Dose at Monitoring Post of Fukushima Daini Nuclear Power Station
Date,Time,MP-1(microSv/h),MP-2(microSv/h),MP-3(microSv/h),MP-4(microSv/h),MP-5(microSv/h),MP-6(microSv/h),MP-7(microSv/h),Wind Direction,Wind Velocity(m/s),Rain
2022/04/27,00:00,0.150,0.142,0.223,0.214,0.219,0.121,0.078,south-southeast,8.7,Yes
2022/04/27,00:10,0.152,0.142,0.221,0.215,0.218,0.122,0.077,south,8.4,Yes
2022/04/27,00:20,0.151,0.141,0.222,0.213,0.220,0.121,0.077,south,7.7,Yes
2022/04/27,00:30,0.151,0.142,0.220,0.215,0.221,0.121,0.078,south-southeast,8.1,Yes
2022/04/27,00:40,0.151,0.143,0.222,0.214,0.218,0.122,0.077,south-southeast,7.9,Yes
2022/04/27,00:50,0.151,0.141,0.221,0.214,0.220,0.121,0.077,south-southeast,9.8,Yes
2022/04/27,01:00,0.153,0.142,0.221,0.216,0.217,0.122,0.077,south-southeast,9.3,No
2022/04/27,01:10,0.151,0.142,0.221,0.213,0.219,0.121,0.077,south-southeast,8.5,Yes
2022/04/27,01:20,0.151,0.142,0.220,0.217,0.219,0.121,0.076,south-southeast,8.6,Yes
2022/04/27,01:30,0.152,0.142,0.222,0.215,0.218,0.122,0.077,south-southeast,10.4,Yes
2022/04/27,01:40,0.150,0.142,0.220,0.216,0.220,0.121,0.077,south,10.3,Yes
2022/04/27,01:50,0.152,0.142,0.223,0.215,0.217,0.122,0.077,south,11.2,Yes
2022/04/27,02:00,0.150,0.142,0.221,0.214,0.219,0.121,0.077,south,10.1,Yes
2022/04/27,02:10,0.152,0.143,0.223,0.216,0.218,0.122,0.077,south,10.3,No
2022/04/27,02:20,0.151,0.141,0.222,0.214,0.219,0.121,0.077,south,10.9,Yes
2022/04/27,02:30,0.151,0.143,0.220,0.216,0.220,0.121,0.077,south,7.6,Yes
2022/04/27,02:40,0.151,0.141,0.223,0.215,0.217,0.122,0.077,south,7.7,Yes
2022/04/27,02:50,0.150,0.142,0.220,0.215,0.220,0.122,0.078,south,6.0,Yes
2022/04/27,03:00,0.152,0.142,0.223,0.216,0.218,0.121,0.077,south,5.9,Yes
2022/04/27,03:10,0.151,0.141,0.221,0.215,0.219,0.122,0.078,south,7.3,Yes
2022/04/27,03:20,0.152,0.143,0.223,0.215,0.219,0.121,0.078,south,7.6,Yes
2022/04/27,03:30,0.153,0.142,0.221,0.214,0.219,0.122,0.077,south,8.1,Yes
2022/04/27,03:40,0.152,0.144,0.222,0.217,0.220,0.121,0.077,south,7.7,Yes
2022/04/27,03:50,0.153,0.141,0.222,0.215,0.218,0.122,0.078,south,8.9,Yes
2022/04/27,04:00,0.151,0.143,0.222,0.216,0.219,0.121,0.077,south-southwest,8.5,No
2022/04/27,04:10,0.153,0.142,0.223,0.214,0.218,0.121,0.077,south-southwest,8.1,No
2022/04/27,04:20,0.152,0.143,0.221,0.215,0.219,0.123,0.077,south,7.1,No
2022/04/27,04:30,0.151,0.142,0.223,0.216,0.218,0.121,0.077,south,5.0,No
2022/04/27,04:40,0.152,0.142,0.220,0.215,0.217,0.120,0.077,south,3.6,No
2022/04/27,04:50,0.152,0.142,0.222,0.216,0.220,0.122,0.077,south-southeast,5.6,No
2022/04/27,05:00,0.152,0.142,0.221,0.214,0.218,0.120,0.077,south-southeast,7.2,No
2022/04/27,05:10,0.151,0.142,0.222,0.216,0.219,0.121,0.077,south,6.1,No
2022/04/27,05:20,0.152,0.141,0.222,0.216,0.219,0.122,0.078,south-southeast,3.8,Yes
2022/04/27,05:30,0.151,0.143,0.221,0.214,0.218,0.121,0.077,southeast,4.1,Yes
2022/04/27,05:40,0.151,0.142,0.223,0.217,0.220,0.121,0.077,south-southeast,3.8,Yes
2022/04/27,05:50,0.153,0.143,0.221,0.214,0.218,0.121,0.077,southeast,3.6,Yes
2022/04/27,06:00,0.152,0.143,0.222,0.216,0.221,0.121,0.077,south-southeast,2.2,Yes
2022/04/27,06:10,0.153,0.143,0.222,0.216,0.218,0.122,0.078,southeast,1.6,Yes
2022/04/27,06:20,0.152,0.143,0.222,0.215,0.219,0.122,0.078,south,1.3,Yes
2022/04/27,06:30,0.151,0.143,0.223,0.215,0.221,0.121,0.078,south,1.8,Yes
2022/04/27,06:40,0.153,0.143,0.222,0.214,0.217,0.121,0.077,southwest,3.3,Yes
2022/04/27,06:50,0.151,0.142,0.222,0.216,0.219,0.122,0.078,west-southwest,3.4,Yes
2022/04/27,07:00,0.153,0.144,0.223,0.214,0.219,0.122,0.078,west-northwest,8.7,Yes
2022/04/27,07:10,0.153,0.142,0.222,0.215,0.218,0.121,0.078,west,6.5,No
2022/04/27,07:20,0.153,0.144,0.224,0.217,0.220,0.122,0.077,west,5.8,No
2022/04/27,07:30,0.153,0.142,0.221,0.215,0.218,0.122,0.077,west,5.9,No
2022/04/27,07:40,0.152,0.143,0.223,0.217,0.219,0.122,0.078,west,10.1,No
2022/04/27,07:50,0.153,0.142,0.223,0.215,0.221,0.122,0.077,west,9.8,No
2022/04/27,08:00,0.153,0.142,0.221,0.216,0.218,0.121,0.078,west-northwest,7.1,No
2022/04/27,08:10,0.152,0.143,0.222,0.216,0.220,0.122,0.078,west-northwest,8.9,No
2022/04/27,08:20,0.152,0.143,0.220,0.215,0.220,0.122,0.078,west-northwest,7.2,No
2022/04/27,08:30,0.152,0.142,0.224,0.217,0.218,0.122,0.078,west-northwest,7.9,No
2022/04/27,08:40,0.152,0.144,0.222,0.216,0.222,0.123,0.078,west-northwest,9.8,No
2022/04/27,08:50,0.154,0.143,0.221,0.215,0.219,0.122,0.078,west,7.9,No
2022/04/27,09:00,0.152,0.142,0.222,0.217,0.219,0.121,0.078,west-northwest,6.9,No
2022/04/27,09:10,0.153,0.142,0.222,0.216,0.220,0.123,0.077,west-northwest,7.6,No
2022/04/27,09:20,0.153,0.142,0.222,0.215,0.219,0.122,0.077,west,11.5,No
2022/04/27,09:30,0.152,0.143,0.225,0.218,0.219,0.122,0.078,west-northwest,11.4,No
2022/04/27,09:40,0.153,0.143,0.222,0.216,0.221,0.122,0.078,west-northwest,10.6,No
2022/04/27,09:50,0.153,0.140,0.224,0.215,0.219,0.122,0.077,west-northwest,14.3,No
2022/04/27,10:00,0.152,0.141,0.223,0.217,0.220,0.121,0.078,west,14.5,No
2022/04/27,10:10,0.153,-,0.222,0.216,0.221,0.122,0.078,west,10.4,No
2022/04/27,10:20,0.153,-,0.220,0.215,0.221,0.123,0.077,west,8.9,No
2022/04/27,10:30,0.152,-,0.220,0.214,0.219,0.123,0.077,west,7.2,No
2022/04/27,10:40,0.152,-,0.221,0.214,0.216,0.122,0.077,west-northwest,6.3,No
2022/04/27,10:50,0.152,-,0.222,0.213,0.217,0.121,0.077,west-northwest,6.7,No
2022/04/27,11:00,0.152,-,0.222,0.214,0.217,0.122,0.077,west-northwest,7.4,No
2022/04/27,11:10,0.154,-,0.222,0.215,0.218,0.123,0.077,west,9.5,No
2022/04/27,11:20,0.153,-,0.222,0.214,0.220,0.123,0.077,west,11.2,No
2022/04/27,11:30,0.153,-,0.222,0.215,0.219,0.123,0.077,west-northwest,10.9,No
2022/04/27,11:40,0.152,-,0.223,0.216,0.219,0.122,0.077,west,9.5,No
2022/04/27,11:50,0.152,-,0.222,0.219,0.218,0.122,0.078,west-northwest,9.8,No
2022/04/27,12:00,0.151,-,0.222,0.220,0.219,0.122,0.078,west,11.5,No
2022/04/27,12:10,0.151,-,0.223,0.218,0.219,0.122,0.077,west,8.4,No
2022/04/27,12:20,0.151,-,0.224,0.217,0.220,0.123,0.078,west,10.6,No
2022/04/27,12:30,0.153,-,0.224,0.217,0.220,0.122,0.078,west,12.3,No
2022/04/27,12:40,0.152,-,0.223,0.216,0.221,0.123,0.078,west,11.8,No
2022/04/27,12:50,0.153,-,0.222,0.217,0.220,0.123,0.078,west-northwest,10.6,No
2022/04/27,13:00,0.152,-,0.225,0.217,0.219,0.124,0.076,west,9.2,No
2022/04/27,13:10,0.153,-,0.223,0.215,0.223,0.123,0.079,west,7.1,No
2022/04/27,13:20,0.155,-,0.224,0.217,0.222,0.122,0.079,west,6.7,No
2022/04/27,13:30,0.155,-,0.226,0.220,0.221,0.122,0.079,west,7.6,No
2022/04/27,13:40,0.154,-,0.227,0.218,0.220,0.122,0.079,west,7.9,No
2022/04/27,13:50,0.153,-,0.226,0.217,0.220,0.123,0.078,west-northwest,9.5,No
2022/04/27,14:00,0.153,-,0.224,0.216,0.219,0.124,0.077,west,9.2,No
2022/04/27,14:10,0.153,-,0.226,0.217,0.220,0.122,0.078,west-northwest,5.9,No
2022/04/27,14:20,0.153,-,0.223,0.216,0.220,0.122,0.078,west,5.7,No
2022/04/27,14:30,0.155,-,0.223,0.215,0.219,0.122,0.079,west,5.5,No
2022/04/27,14:40,0.155,-,0.224,0.219,0.219,0.122,0.078,west-southwest,2.8,No
2022/04/27,14:50,0.153,-,0.223,0.219,0.222,0.123,0.077,west-northwest,3.3,No
2022/04/27,15:00,0.153,-,0.226,0.218,0.221,0.122,0.079,west-southwest,1.0,No
2022/04/27,15:10,0.154,-,0.227,0.217,0.221,0.122,0.079,west,2.8,No
2022/04/27,15:20,0.155,-,0.225,0.216,0.220,0.122,0.078,west-northwest,5.0,No
2022/04/27,15:30,0.154,-,0.225,0.219,0.219,0.122,0.078,west-northwest,4.8,No
2022/04/27,15:40,0.153,-,0.224,0.219,0.219,0.123,0.078,west-northwest,6.6,No
2022/04/27,15:50,0.154,-,0.228,0.217,0.224,0.123,0.078,west,7.9,No
2022/04/27,16:00,0.154,-,0.225,0.218,0.222,0.123,0.077,west,7.6,No
2022/04/27,16:10,0.153,-,0.224,0.219,0.220,0.123,0.079,west-northwest,5.5,No
2022/04/27,16:20,0.155,-,0.226,0.218,0.223,0.123,0.077,west-northwest,5.4,No
2022/04/27,16:30,0.154,-,0.225,0.219,0.222,0.122,0.078,west-northwest,6.0,No
2022/04/27,16:40,0.155,-,0.226,0.220,0.220,0.123,0.078,northwest,4.4,No
2022/04/27,16:50,0.154,-,0.227,0.218,0.223,0.123,0.078,west-northwest,3.8,No
2022/04/27,17:00,0.153,-,0.225,0.220,0.220,0.122,0.078,northwest,2.6,No
2022/04/27,17:10,0.156,0.143,0.227,0.219,0.221,0.123,0.078,northwest,3.6,No
2022/04/27,17:20,0.154,0.144,0.226,0.220,0.222,0.122,0.079,northwest,3.7,No
2022/04/27,17:30,0.154,0.144,0.225,0.218,0.220,0.124,0.078,northwest,4.7,No
2022/04/27,17:40,0.155,0.144,0.225,0.218,0.222,0.123,0.077,northwest,5.2,No
2022/04/27,17:50,0.154,0.144,0.226,0.219,0.219,0.122,0.078,northwest,4.9,No
2022/04/27,18:00,0.155,0.144,0.227,0.218,0.224,0.123,0.078,west-northwest,5.6,No
2022/04/27,18:10,0.153,0.144,0.224,0.220,0.221,0.123,0.078,northwest,4.2,No
2022/04/27,18:20,0.155,0.144,0.226,0.218,0.223,0.122,0.077,north,4.0,No
2022/04/27,18:30,0.154,0.145,0.225,0.219,0.222,0.124,0.078,north-northeast,3.8,No
2022/04/27,18:40,0.154,0.144,0.226,0.219,0.220,0.122,0.079,north-northwest,4.3,No
2022/04/27,18:50,0.154,0.144,0.225,0.219,0.222,0.122,0.078,north,4.9,No
2022/04/27,19:00,0.155,0.143,0.227,0.219,0.220,0.122,0.079,north-northwest,4.4,No
2022/04/27,19:10,0.154,0.145,0.225,0.219,0.223,0.124,0.078,north-northwest,5.8,No
2022/04/27,19:20,0.155,0.144,0.226,0.218,0.219,0.122,0.078,north-northwest,6.9,No
2022/04/27,19:30,0.155,0.145,0.226,0.218,0.222,0.122,0.078,northwest,6.2,No
2022/04/27,19:40,0.155,0.145,0.227,0.219,0.220,0.123,0.079,northwest,4.7,No
2022/04/27,19:50,0.155,0.145,0.226,0.218,0.223,0.122,0.078,north-northwest,3.6,No
2022/04/27,20:00,0.154,0.144,0.227,0.219,0.222,0.123,0.078,north,4.2,No
2022/04/27,20:10,0.155,0.144,0.225,0.218,0.221,0.122,0.079,north,4.7,No
2022/04/27,20:20,0.154,0.143,0.226,0.219,0.221,0.123,0.078,north,2.1,No
2022/04/27,20:30,0.155,0.144,0.226,0.218,0.221,0.123,0.078,northwest,2.3,No
2022/04/27,20:40,0.153,0.144,0.226,0.220,0.222,0.123,0.078,northwest,3.6,No
2022/04/27,20:50,0.155,0.145,0.226,0.218,0.220,0.123,0.078,northwest,5.4,No
2022/04/27,21:00,0.154,0.144,0.227,0.219,0.221,0.122,0.078,northwest,6.6,No
2022/04/27,21:10,0.155,0.145,0.226,0.219,0.220,0.122,0.078,northwest,4.6,No
2022/04/27,21:20,0.154,0.144,0.226,0.219,0.223,0.122,0.079,north-northwest,3.3,No
2022/04/27,21:30,0.155,0.144,0.226,0.219,0.220,0.122,0.078,north-northwest,2.1,No
2022/04/27,21:40,0.154,0.145,0.226,0.218,0.222,0.123,0.078,north,3.7,No
2022/04/27,21:50,0.155,0.144,0.226,0.219,0.222,0.123,0.079,north,3.7,No
2022/04/27,22:00,0.154,0.144,0.226,0.218,0.223,0.123,0.078,north,4.6,No
2022/04/27,22:10,0.155,0.144,0.227,0.219,0.221,0.122,0.078,north-northwest,4.9,No
2022/04/27,22:20,0.155,0.144,0.225,0.218,0.223,0.123,0.079,north,6.5,No
2022/04/27,22:30,0.154,0.145,0.227,0.220,0.221,0.122,0.079,north,5.4,No
2022/04/27,22:40,0.156,0.144,0.226,0.219,0.222,0.124,0.078,north-northwest,4.9,No
2022/04/27,22:50,0.154,0.144,0.226,0.221,0.222,0.123,0.079,north-northwest,5.9,No
2022/04/27,23:00,0.154,0.144,0.227,0.219,0.221,0.122,0.078,north-northwest,7.5,No
2022/04/27,23:10,0.154,0.144,0.226,0.219,0.222,0.123,0.078,north-northwest,6.0,No
2022/04/27,23:20,0.155,0.144,0.227,0.219,0.221,0.123,0.078,north,5.0,No
2022/04/27,23:30,0.153,0.144,0.225,0.219,0.222,0.123,0.078,north,5.5,No
2022/04/27,23:40,0.155,0.143,0.227,0.220,0.221,0.123,0.079,north-northeast,6.5,No
2022/04/27,23:50,0.155,0.144,0.226,0.218,0.222,0.123,0.078,north-northeast,8.3,No
